This is the latest recevied weather packets stored in our database for station/object WA5TET. If no packets are shown the sender has not sent any weather packets the latest 10 day(s).
| Time | Temp. | Humidity | Pressure | Rain* | Wind** | Luminosity | Snow |
|---|---|---|---|---|---|---|---|
| 1788561024 | 37.22° C | 36% | 1010.2 hPa | 0 mm | - | 436 W/m² | - |
| 1788560719 | 38.33° C | 35% | 1010 hPa | 0 mm | - | 447 W/m² | - |
| 1788560414 | 38.33° C | 34% | 1009.9 hPa | 0 mm | - | 484 W/m² | - |
| 1788560108 | 37.78° C | 34% | 1010.1 hPa | 0 mm | - | 525 W/m² | - |
| 1788559803 | 37.78° C | 35% | 1010.1 hPa | 0 mm | - | 576 W/m² | - |
| 1788559502 | 37.78° C | 35% | 1010 hPa | 0 mm | - | 224 W/m² | - |
| 1788559198 | 38.33° C | 34% | 1010.1 hPa | 0 mm | - | 611 W/m² | - |
| 1788558893 | 38.89° C | 33% | 1010.1 hPa | 0 mm | - | 641 W/m² | - |
| 1788558589 | 37.78° C | 35% | 1010.2 hPa | 0 mm | - | 677 W/m² | - |
| 1788558284 | 37.78° C | 34% | 1010.3 hPa | 0 mm | - | 654 W/m² | - |
| 1788557979 | 37.78° C | 35% | 1010.4 hPa | 0 mm | - | 690 W/m² | - |
| 1788557672 | 37.78° C | 34% | 1010.2 hPa | 0 mm | - | 631 W/m² | - |
| 1788557369 | 38.33° C | 34% | 1010.4 hPa | 0 mm | - | 717 W/m² | - |
| 1788557068 | 38.33° C | 34% | 1010.4 hPa | 0 mm | - | 762 W/m² | - |
| 1788556764 | 37.78° C | 35% | 1010.4 hPa | 0 mm | - | 747 W/m² | - |
| 1788556458 | 37.78° C | 35% | 1010.4 hPa | 0 mm | - | 772 W/m² | - |
| 1788556154 | 37.78° C | 35% | 1010.7 hPa | 0 mm | - | 799 W/m² | - |
| 1788555853 | 38.33° C | 34% | 1010.6 hPa | 0 mm | - | 812 W/m² | - |
| 1788555549 | 38.33° C | 35% | 1010.8 hPa | 0 mm | - | 817 W/m² | - |
| 1788555244 | 37.78° C | 35% | 1010.6 hPa | 0 mm | - | 811 W/m² | - |
| 1788554941 | 37.78° C | 35% | 1010.8 hPa | 0 mm | - | 816 W/m² | - |
| 1788554637 | 37.22° C | 36% | 1010.7 hPa | 0 mm | - | 890 W/m² | - |
| 1788554333 | 37.22° C | 37% | 1010.7 hPa | 0 mm | - | 301 W/m² | - |
| 1788554029 | 37.22° C | 36% | 1010.9 hPa | 0 mm | - | 891 W/m² | - |
| 1788553724 | 37.22° C | 36% | 1010.9 hPa | 0 mm | - | 248 W/m² | - |
* Rain latest hour (hover to see other rain measurements)
** Current wind speed in m/s (hover to see current wind gust speed)